sat.trackr.live / text

‹ back to catalog

ONEWEB-0532

NORAD 55140 · 2023-004A

PAYLOAD ACTIVE UNKNOWN

§ Identity

Operator
Country
UK
Launch date
2023-01-10
Launch site
AFETR
Launch vehicle
Mass (kg)
RCS (m²)

Purposes: comms

External: N2YO · Heavens-Above · Gunter

§ Orbital elements

Epoch: 2026-05-25T02:24:52.765344Z

Period
109.29 min
Inclination
87.9154°
Eccentricity
0.0002000
Mean motion
13.17651493 rev/d
Perigee alt
1,192.2 km
Apogee alt
1,195.2 km
Semi-major
7,571.8 km
B*
4.9723e-6
RAAN
10.4559°
Arg perigee
93.4636°
Mean anomaly
266.6724°
Rev number
16,454

§ Raw data

ONEWEB-05321 55140U 23004A   26145.10061071  .00000015  00000+0  49723-5 0  99932 55140  87.9154  10.4559 0002000  93.4636 266.6724 13.17651493164541

JSON: /api/v1/satellites/55140 · /tle

For live sub-satellite position, see the globe view (requires WebGL).

§ Visibility from observer

Set your observer location to see the next 7 days of passes ≥ 10°. The values pass through the URL so the page stays shareable.

No JS? Fill the form by hand. The geolocation button needs JavaScript.